sat.trackr.live / text

‹ back to catalog

STARLINK-34049

NORAD 64042 · 2025-102W

PAYLOAD ACTIVE UNKNOWN

§ Identity

Operator
Country
US
Launch date
2025-05-16
Launch site
AFWTR
Launch vehicle
Mass (kg)
RCS (m²)

Purposes: comms

External: N2YO · Heavens-Above · Gunter

§ Orbital elements

Epoch: 2026-09-20T13:52:01.381728Z

Period
94.14 min
Inclination
70.0007°
Eccentricity
0.0003425
Mean motion
15.29585559 rev/d
Perigee alt
474.7 km
Apogee alt
479.4 km
Semi-major
6,855.2 km
B*
2.5679e-4
RAAN
340.7167°
Arg perigee
271.8503°
Mean anomaly
88.2279°
Rev number
7,520

§ Raw data

STARLINK-340491 64042U 25102W   26263.57779377  .00007263  00000+0  25679-3 0  99962 64042  70.0007 340.7167 0003425 271.8503  88.2279 15.29585559 75204

JSON: /api/v1/satellites/64042 · /tle

For live sub-satellite position, see the globe view (requires WebGL).

§ Visibility from observer

Set your observer location to see the next 7 days of passes ≥ 10°. The values pass through the URL so the page stays shareable.

No JS? Fill the form by hand. The geolocation button needs JavaScript.